EW6762 Weather Reports


time (UTC)temp
F
wind
direction
speed
knots
gust
knots
rain 1hr
in
rain 24hr
in
rain mn
in
humidity
%
barometer
mb
20260505070312 63 127 0.9 3.5 0.00 0.00 0.00 71 1016.8
20260505065309 63 159 2.6 8.7 0.00 0.00 0.00 71 1016.8
20260505064311 63 157 1.7 5.2 0.00 0.00 0.00 71 1016.7
20260505063329 63 190 1.7 5.2 0.00 0.00 0.00 71 1016.8
20260505062321 64 130 1.7 6.1 0.00 0.00 0.00 70 1016.8
20260505061318 64 142 1.7 7.8 0.00 0.00 0.00 70 1016.9
20260505060316 64 93 1.7 4.3 0.00 0.00 0.00 69 1017.0
20260505055310 64 135 1.7 6.1 0.00 0.00 0.00 69 1017.0
20260505054331 64 144 2.6 6.1 0.00 0.00 0.00 69 1017.1
20260505053318 65 144 2.6 4.3 0.00 0.00 0.00 68 1017.2
20260505052319 65 182 2.6 5.2 0.00 0.00 0.00 68 1017.2
20260505051312 65 170 1.7 6.1 0.00 0.00 0.00 68 1017.3
20260505050315 65 159 2.6 6.1 0.00 0.00 0.00 67 1017.3
20260505041321 66 192 2.6 6.1 0.00 0.00 0.00 67 1017.3
20260505040313 66 138 6.1 10.4 0.00 0.00 0.00 67 1017.3
20260505035331 66 127 2.6 7.8 0.00 0.00 0.00 67 1017.3
20260505034321 67 190 4.3 9.6 0.00 0.00 0.00 67 1017.3
20260505033345 67 161 3.5 8.7 0.00 0.00 0.00 67 1017.3
20260505032318 67 145 4.3 7.0 0.00 0.00 0.00 66 1017.3
20260505031337 67 131 4.3 10.4 0.00 0.00 0.00 66 1017.3
20260505030313 68 166 3.5 8.7 0.00 0.00 0.00 66 1017.3
20260505025319 68 135 4.3 13.0 0.00 0.00 0.00 65 1017.3
20260505024314 68 126 5.2 9.6 0.00 0.00 0.00 65 1017.3
20260505023316 68 148 4.3 10.4 0.00 0.00 0.00 65 1017.3
20260505022332 68 167 5.2 10.4 0.00 0.00 0.00 64 1017.2
20260505021310 69 148 3.5 9.6 0.00 0.00 0.00 64 1017.2
20260505020327 69 136 3.5 7.8 0.00 0.00 0.00 64 1017.1
20260505015330 69 141 4.3 8.7 0.00 0.00 0.00 63 1017.0
20260505014323 70 175 3.5 10.4 0.00 0.00 0.00 63 1016.9
20260505013320 70 76 3.5 10.4 0.00 0.00 0.00 63 1016.8
20260505012321 71 130 5.2 10.4 0.00 0.00 0.00 63 1016.7
20260505011319 71 184 4.3 9.6 0.00 0.00 0.00 62 1016.7
20260505010315 72 150 5.2 10.4 0.00 0.00 0.00 62 1016.6
20260505005317 72 136 3.5 8.7 0.00 0.00 0.00 61 1016.4
20260505004311 73 141 5.2 9.6 0.00 0.00 0.00 61 1016.2
20260505003334 73 131 5.2 7.8 0.00 0.00 0.00 60 1016.1
20260505002312 74 144 6.1 11.3 0.00 0.00 0.00 59 1016.0
20260505001335 75 132 6.1 10.4 0.00 0.00 0.00 56 1015.8
20260505000351 76 140 6.1 12.2 0.00 0.00 0.00 49 1015.7
20260504235328 77 114 3.5 7.8 0.00 0.00 0.00 43 1015.5
20260504234323 77 146 3.5 9.6 0.00 0.00 0.00 43 1015.4
20260504233327 78 153 3.5 12.2 0.00 0.00 0.00 41 1015.1
20260504232322 79 163 6.1 11.3 0.00 0.00 0.00 40 1015.0
20260504231318 80 93 2.6 11.3 0.00 0.00 0.00 41 1015.0
20260504230318 81 205 3.5 8.7 0.00 0.00 0.00 39 1015.0
20260504225314 82 212 2.6 7.8 0.00 0.00 0.00 38 1014.9
20260504224310 82 178 2.6 7.0 0.00 0.00 0.00 38 1015.0
20260504223313 82 126 4.3 9.6 0.00 0.00 0.00 39 1014.9
20260504222308 83 89 4.3 9.6 0.00 0.00 0.00 37 1014.9
20260504221310 83 153 3.5 8.7 0.00 0.00 0.00 37 1014.9
20260504220325 84 151 3.5 9.6 0.00 0.00 0.00 36 1015.0
20260504215348 83 157 5.2 9.6 0.00 0.00 0.00 35 1015.0
20260504214321 84 165 3.5 11.3 0.00 0.00 0.00 35 1015.1
20260504213320 84 110 4.3 13.0 0.00 0.00 0.00 37 1015.0
20260504212318 84 157 4.3 9.6 0.00 0.00 0.00 37 1015.0
20260504211315 84 142 4.3 9.6 0.00 0.00 0.00 35 1015.0
20260504210315 84 126 5.2 10.4 0.00 0.00 0.00 36 1015.1
20260504205310 85 235 3.5 11.3 0.00 0.00 0.00 36 1015.1
20260504204330 85 115 5.2 10.4 0.00 0.00 0.00 34 1015.1
20260504203320 85 175 3.5 9.6 0.00 0.00 0.00 35 1015.3
20260504202323 85 135 4.3 8.7 0.00 0.00 0.00 35 1015.4
20260504201314 84 205 1.7 7.0 0.00 0.00 0.00 36 1015.5
20260504200310 84 245 5.2 8.7 0.00 0.00 0.00 36 1015.5
20260504195313 85 121 4.3 12.2 0.00 0.00 0.00 37 1015.4
20260504194325 84 135 4.3 11.3 0.00 0.00 0.00 35 1015.6
20260504193325 84 109 4.3 10.4 0.00 0.00 0.00 35 1015.6
20260504192318 84 242 4.3 12.2 0.00 0.00 0.00 34 1015.8
20260504191336 84 63 5.2 10.4 0.00 0.00 0.00 35 1015.9
20260504190326 84 157 4.3 9.6 0.00 0.00 0.00 36 1016.1
20260504185345 83 146 3.5 10.4 0.00 0.00 0.00 36 1016.1
20260504184320 83 161 3.5 7.8 0.00 0.00 0.00 36 1016.2
20260504183318 83 200 2.6 10.4 0.00 0.00 0.00 37 1016.1
20260504182333 83 148 5.2 12.2 0.00 0.00 0.00 36 1016.4
20260504181323 82 216 3.5 13.0 0.00 0.00 0.00 38 1016.6
20260504180345 82 202 3.5 8.7 0.00 0.00 0.00 38 1016.8
20260504175342 82 155 2.6 10.4 0.00 0.00 0.00 39 1016.7
20260504174315 82 177 6.1 13.9 0.00 0.00 0.00 37 1016.9
20260504173332 81 215 4.3 9.6 0.00 0.00 0.00 42 1017.0
20260504172322 81 121 3.5 9.6 0.00 0.00 0.00 42 1017.2
20260504171314 81 231 4.3 9.6 0.00 0.00 0.00 42 1017.3
20260504170309 80 150 5.2 13.0 0.00 0.00 0.00 41 1017.4
20260504160312 77 116 4.3 9.6 0.00 0.00 0.00 47 1018.0
20260504150314 75 229 2.6 5.2 0.00 0.00 0.00 50 1018.4
20260504140321 72 111 1.7 3.5 0.00 0.00 0.00 60 1018.6
20260504130335 64 153 3.5 7.0 0.00 0.00 0.00 74 1018.5
20260504120314 57 180 3.5 6.1 0.00 0.00 0.00 85 1018.5
20260504110325 54 126 1.7 3.5 0.00 0.00 0.00 87 1018.7
20260504100309 55 171 0.9 3.5 0.00 0.00 0.00 84 1018.6
20260504081340 56 165 1.7 5.2 0.00 0.04 0.00 81 1018.5
20260504080321 56 200 2.6 6.1 0.00 0.04 0.00 81 1018.5